Location: Shepherdstown, WV
(39.4326°N, 77.8042°W)
Time: 16:44:28
(UTC-04:00)

X-37B - Pass Details

Date: 28 June 2021
Orbit: 383 x 392 km, 45.0° (Epoch: 01 July)

Event Time Altitude Azimuth Distance (km) Brightness Sun altitude
Rises 22:37:48 0° 288° (WNW) 2,257 5.4 -17.4°
Reaches altitude 10° 22:40:03 10° 301° (WNW) 1,402 4.5 -17.7°
Maximum altitude 22:42:50 28° 3° (N) 757 2.5 -18.0°
Enters shadow 22:45:09 13° 60° (ENE) 1,241 3.1 -18.3°
